Location: Kitchener-Waterloo
(43.4500°N, 80.5000°W)
Time: 19:29:20
(UTC-04:00)

Daily predictions for brighter satellites

Satellite Brightness Start Highest point End
(mag) Time Altitude Azimuth Time Altitude Azimuth Time Altitude Azimuth
Cosmos 2297 Rocket 2.2 20:22:08 10° NNW 20:27:49 71° ENE 20:33:27 10° SSE
Okean 2 3.7 20:25:04 10° NNW 20:29:15 77° W 20:33:22 10° S
NOSS 7 (H) 4.3 20:26:02 10° SSW 20:29:19 69° SE 20:32:47 10° NE
Cosmos 2082 3.8 20:23:57 10° NNW 20:29:37 87° WSW 20:35:15 10° SSE
Helios 1B rocket 2.7 20:26:37 10° N 20:30:45 74° WNW 20:34:50 10° SSW
CZ-4B DEB 2.8 20:29:27 10° SSE 20:32:42 69° ENE 20:36:00 10° N
SL-24 R/B - RUBIN 2 4.5 20:30:07 10° SSW 20:35:51 59° ESE 20:42:15 10° NE
Meteor 1-5 Rocket 4.3 20:30:54 10° S 20:36:16 85° W 20:41:51 10° N
Meteor 1-12 Rocket 4.4 20:30:52 10° S 20:36:26 54° E 20:42:08 10° NNE
Spot 2 Rocket 4.3 20:34:56 10° S 20:39:56 57° W 20:44:57 10° NNW
Iridium 4 Rocket 3.8 20:35:23 10° NNE 20:40:04 39° E 20:44:21 10° SSE
Cosmos 1346 Rocket 3.5 20:39:07 10° NNW 20:43:02 59° W 20:46:58 10° S
Cosmos 1544 Rocket 4.4 20:39:23 10° SSW 20:43:42 56° W 20:48:05 10° N
Cosmos 1515 4.2 20:40:11 10° N 20:43:51 41° ENE 20:47:29 10° SSE
Cosmos 1934 Rocket 4.2 20:39:30 10° SSW 20:45:39 77° W 20:51:57 10° N
Lacrosse 5 1.9 20:44:03 10° NW 20:49:07 70° NE 20:53:46 12° SE
Cosmos 1937 Rocket 4.0 20:44:53 10° N 20:49:56 44° ENE 20:54:56 10° SE
Envisat 4.1 20:46:25 10° ESE 20:50:32 27° ENE 20:54:44 10° N
Cosmos 1939 Rocket 4.2 20:48:12 12° ESE 20:51:12 24° ENE 20:54:33 10° NNE
Cosmos 2298 Rocket 4.0 20:48:05 10° NNW 20:53:25 71° ENE 20:58:43 10° SSE
Resurs 01 Rocket 3.2 20:49:58 10° SSW 20:54:06 38° W 20:58:16 10° NNW
Cosmos 1153 Rocket 4.5 20:49:29 10° S 20:55:34 63° E 21:01:38 10° NNE
SPOT 5 4.3 20:58:57 14° ESE 21:01:34 21° ENE 21:05:03 10° NNE
Cosmos 1743 3.6 20:59:32 10° SSE 21:02:56 29° E 21:06:20 10° NNE
Cosmos 1697 Rocket 2.7 20:57:46 10° S 21:03:19 61° ESE 21:08:53 10° NNE
Cosmos 1066 Rocket 4.3 21:01:05 10° N 21:06:45 65° ENE 21:12:30 10° SSE
Cosmos 1802 Rocket 4.4 21:06:46 10° SSE 21:12:45 44° E 21:18:47 10° NNE
ERS-1 Rocket 3.2 21:08:34 13° SE 21:12:53 52° ENE 21:17:46 10° N
SL-16 R/B 3.6 21:16:08 17° E 21:16:08 17° E 21:19:23 10° ENE
RESURS DK-1 2.3 21:11:45 10° NNW 21:15:55 79° ENE 21:18:51 19° SSE
Cosmos 2150 Rocket 4.0 21:13:34 10° NNW 21:18:45 81° WSW 21:23:51 10° SSE
Cosmos 2016 Rocket 4.4 21:14:39 10° SSE 21:20:19 41° E 21:26:04 10° NNE
CZ-4 DEB 2.7 21:19:01 24° SSE 21:20:42 62° ENE 21:23:49 10° N
Cosmos 1825 Rocket 3.7 21:19:58 10° N 21:24:19 54° E 21:26:56 22° SSE
Cosmos 1763 Rocket 3.7 21:20:22 10° S 21:25:11 44° ESE 21:30:00 10° NNE
OAO 2 Rocket 4.3 21:21:44 10° WSW 21:26:07 31° S 21:28:13 22° SE
USA 186 3.1 21:23:42 10° SSW 21:26:29 34° W 21:29:07 10° NNW
ALOS 3.6 21:22:28 10° SSW 21:26:50 39° W 21:31:15 10° NNW
Cosmos 1980 Rocket 2.2 21:21:46 10° S 21:27:18 58° ESE 21:32:54 10° NNE
H-2A R/B 4.3 21:26:28 10° SSW 21:30:04 37° W 21:33:46 10° NNW
Cosmos 1898 Rocket 4.0 21:26:42 10° NNW 21:31:55 59° WSW 21:37:03 10° S
Cosmos 2173 Rocket 4.0 21:25:55 10° S 21:32:13 70° E 21:38:31 10° NNE
Cosmos 1953 Rocket 3.8 21:31:34 10° N 21:35:57 53° ENE 21:37:48 31° SE
Cosmos 1842 4.0 21:32:55 10° N 21:36:30 33° ENE 21:36:55 33° E
Cosmos 2098 Rocket 4.3 21:31:59 16° SSE 21:36:51 42° E 21:42:05 10° NNE
Cosmos 1125 Rocket 4.2 21:33:16 10° N 21:38:04 36° ENE 21:39:49 28° E
H-2A R/B 2.3 21:37:54 35° ESE 21:39:08 47° ENE 21:43:09 10° N
USA 215 4.4 21:34:13 12° ENE 21:39:34 33° NNE 21:45:17 10° NW
Cosmos 967 Rocket 4.4 21:35:03 10° NNW 21:41:27 83° ENE 21:45:05 27° SE
Cosmos 2228 4.1 21:43:11 26° ENE 21:43:11 26° ENE 21:46:09 10° NNE
Cosmos 1666 3.2 21:45:23 39° E 21:45:23 39° E 21:48:43 10° NNE
CZ-3C R/B 4.5 21:17:59 10° W 21:48:05 24° SW 21:55:35 12° S
Cosmos 2100 Rocket 4.1 21:42:55 10° S 21:49:12 81° W 21:55:27 10° N
Cosmos 841 Rocket 3.4 21:44:19 10° S 21:49:29 66° ESE 21:54:40 10° NNE
Tiangong 1 2.2 21:47:38 10° W 21:50:14 32° SSW 21:50:14 32° SSW
Cosmos 2263 Rocket 3.3 21:46:37 10° N 21:51:20 27° NE 21:52:51 24° ENE
YAOGAN 6 3.2 21:53:36 41° ENE 21:53:36 41° ENE 21:56:59 10° N
Cosmos 1758 Rocket 3.4 21:50:03 10° N 21:54:24 71° E 21:55:33 47° SSE
ASTEX 1 3.4 21:52:29 10° NNE 21:57:27 58° E 21:58:58 40° SSE
Tsikada Rocket 4.1 21:53:35 10° N 21:59:56 58° ENE 22:02:24 36° SE
Cosmos 2322 Rocket 2.5 22:00:47 41° SE 22:01:28 43° ESE 22:06:45 10° NE
Cosmos 2061 Rocket 4.2 21:56:18 10° SSW 22:02:35 71° W 22:08:50 10° N
Cosmos 1340 3.1 21:58:59 10° NNW 22:02:44 58° W 22:03:55 38° SSW
deb Chang Zheng 4 3.5 21:59:37 10° NNE 22:04:06 76° ESE 22:05:36 41° S
Meteor 1-15 Rocket 4.3 22:08:02 36° SSE 22:10:24 64° E 22:16:12 10° NNE
Cosmos 372 Rocket 4.4 22:08:50 10° N 22:13:46 44° ENE 22:14:12 43° E
MetOp-A 4.0 22:12:56 46° SSE 22:14:37 85° ENE 22:20:01 10° NNW
Meteor 2-9 Rocket 4.0 22:12:19 35° S 22:14:42 78° E 22:20:06 10° NNE
Cosmos 2360 4.3 22:12:44 10° SSW 22:18:27 79° WNW 22:24:14 10° NNE
Cosmos 1725 Rocket 3.9 22:18:11 31° S 22:21:20 82° E 22:27:36 10° N
Cosmos 2058 Rocket 3.2 22:22:25 49° SSW 22:23:32 75° W 22:28:05 10° N
Cosmos 405 Rocket 3.9 22:24:58 10° N 22:27:16 33° NNE 22:27:16 33° NNE
Envisat 4.1 22:26:38 23° SSW 22:29:21 40° W 22:34:08 10° NNW
Lacrosse 5 3.6 22:27:50 10° WNW 22:31:38 22° WSW 22:32:58 20° SW
BREEZE-M DEB (TANK) 4.5 22:31:18 10° WNW 22:35:45 76° SSW 22:39:46 41° SE
Cosmos 332 Rocket 4.2 22:36:59 52° NE 22:36:59 52° NE 22:40:48 10° NNE
BREEZE-M DEB (TANK) 3.3 22:33:47 10° WNW 22:35:26 38° W 22:35:26 38° W
SPOT 5 3.5 22:38:12 42° SW 22:39:20 50° W 22:43:59 10° NNW
CZ-4B R/B 3.9 22:35:36 10° NNE 22:39:05 46° NE 22:39:05 46° NE
Landsat 7 4.4 22:43:29 48° NE 22:43:29 48° NE 22:47:20 10° N
Cosmos 2233 Rocket 3.8 22:43:02 66° SSE 22:43:51 76° E 22:50:07 10° N
H-2A R/B 2.4 22:56:29 52° NNE 22:56:29 52° NNE 23:00:27 10° N
ARGOS 3.2 22:57:44 66° WSW 22:57:57 67° WSW 23:03:21 10° NNW
Terra 2.7 22:59:15 41° NNE 22:59:15 41° NNE 23:02:37 10° N
NOAA 11 4.3 22:58:50 63° WSW 22:59:10 65° WSW 23:04:37 10° NNW
SL-16 R/B 2.3 22:57:52 50° SW 22:59:18 71° WNW 23:04:59 10° NNE
Cosmos 1844 Rocket 4.2 22:58:18 10° N 23:02:32 24° NE 23:02:32 24° NE
Cosmos 2360 Rocket 3.5 23:14:23 30° NE 23:14:23 30° NE 23:17:13 10° NNE
Cosmos 1980 Rocket 4.3 23:07:08 10° WSW 23:11:43 25° NW 23:16:20 10° N
BREEZE-M DEB (TANK) 4.2 22:43:34 10° WNW 23:13:04 85° SSW 23:14:38 63° SE
SPOT 1/Viking Rocket 4.4 23:15:02 42° W 23:15:05 42° W 23:20:02 10° NNW
H-2A R/B 4.5 23:15:02 15° W 23:15:26 15° W 23:17:50 10° WNW
USA 215 3.2 23:21:34 70° ENE 23:21:57 73° NE 23:28:29 10° NW
BREEZE-M DEB (TANK) 3.9 23:21:26 10° W 23:27:44 47° WNW 23:27:44 47° WNW
Cosmos 1464 Rocket 4.2 23:32:35 65° NNE 23:32:35 65° NNE 23:37:57 10° N
BREEZE-M DEB (TANK) 3.8 23:17:57 10° WNW 23:31:50 66° WSW 23:31:50 66° WSW
Cosmos 2263 Rocket 3.0 23:30:10 10° NW 23:34:32 44° WNW 23:34:32 44° WNW
Cosmos 2322 Rocket 3.8 23:42:28 18° WSW 23:45:38 31° NW 23:50:36 10° N
